Location: Cold Norton
(51.6667°N, 0.6667°E)
Time: 06:09:31
(UTC+00:00)

Cosmos 2026 Rocket - Pass Details

Date: 18 November 2025
Orbit: 938 x 1000 km, 82.9° (Epoch: 10 December)

Event Time Altitude Azimuth Distance (km) Brightness Sun altitude
Rises 18:12:02 0° 351° (N) 3,615 7.0 -19.6°
Reaches altitude 10° 18:14:34 10° 355° (N) 2,670 6.3 -20.0°
Maximum altitude 18:20:36 61° 76° (ENE) 1,074 3.9 -20.9°
Drops below altitude 10° 18:26:39 10° 156° (SSE) 2,683 6.1 -21.9°
Sets 18:29:12 0° 160° (SSE) 3,634 6.8 -22.3°
